Torna al catalogo

STARLINK-31009

AttivoComunicazioniVLEO
NORAD 58530·PAYLOAD·🇺🇸 United States

Lanciato Dec 7, 2023 da Cape Canaveral Space Force Station

Loading…

Prossimi Passaggi (prossime 24 ore)

TLE

AggiornatoSource: CelesTrak SupGP

Epoca: Sep 15, 2026, 02:20 UTC

1 58530C 23191Y   26258.09770833  .00060576  00000+0  21950-2 0  2587
2 58530  43.0025 113.7336 0001271 281.6092 273.7644 15.27534712    11

Traccia STARLINK-31009 in tempo reale con AllMySat

Download on the App Store